This demonstration page uses our WeatherBlox Daily Observations layout. Learn more.

Left ArrowRight Arrow

Hourly Observations for July 25, 2015

Temp ( °F °C ) Dew Point ( °F °C ) Humidity (%) Winds ( mph kmh ) Pressure ( in mb ) Visibility ( mi km ) Precip ( " mm )
12:52 am 00:52 Clear 71 21.7 66 18.9 84 84 SSE 5 7 29.92 1013 10 16 0.00 0.00
1:52 am 01:52 Clear 72 22.2 66 18.9 82 82 Calm 29.94 1014 10 16 0.00 0.00
2:52 am 02:52 Clear 71 21.7 67 19.4 87 87 Calm 29.95 1014 10 16 0.00 0.00
3:52 am 03:52 Clear 71 21.7 67 19.4 87 87 SSE 8 13 29.93 1014 10 16 0.00 0.00
4:52 am 04:52 Clear 71 21.7 67 19.4 87 87 S 6 9 29.94 1014 10 16 0.00 0.00
5:52 am 05:52 Clear 70 21.1 67 19.4 90 90 S 8 13 29.95 1014 10 16 0.00 0.00
6:52 am 06:52 Sunny 72 22.2 68 20 87 87 E 6 9 29.97 1015 10 16 0.00 0.00
7:52 am 07:52 Sunny 76 24.4 70 21.1 82 82 ENE 5 7 30.00 1016 10 16 0.00 0.00
8:52 am 08:52 Partly Cloudy 79 26.1 71 21.7 77 77 SSE 3 6 30.01 1016 10 16 0.00 0.00
9:52 am 09:52 Mostly Cloudy 81 27.2 72 22.2 74 74 SE 6 9 30.00 1016 10 16 0.00 0.00
10:52 am 10:52 Sunny 83 28.3 72 22.2 70 70 S 5 7 29.99 1016 10 16 0.00 0.00
11:52 am 11:52 Sunny 86 30 74 23.3 67 67 SSE 5 7 29.98 1015 10 16 0.00 0.00
12:52 pm 12:52 Sunny 89 31.7 74 23.3 61 61 Calm 29.97 1015 10 16 0.00 0.00
1:52 pm 13:52 Sunny 90 32.2 74 23.3 59 59 SSW 5 7 29.95 1014 10 16 0.00 0.00
2:52 pm 14:52 Sunny 91 32.8 74 23.3 57 57 SW 5 7 29.92 1013 10 16 0.00 0.00
3:52 pm 15:52 Sunny 92 33.3 75 23.9 58 58 S 7 11 29.91 1013 10 16 0.00 0.00
4:52 pm 16:52 Sunny 91 32.8 74 23.3 57 57 S 9 15 29.91 1013 10 16 0.00 0.00
5:52 pm 17:52 Sunny 91 32.8 75 23.9 59 59 S 8 13 29.90 1013 10 16 0.00 0.00
6:52 pm 18:52 Sunny 90 32.2 76 24.4 63 63 S 9 15 29.90 1012 10 16 0.00 0.00
7:52 pm 19:52 Sunny 87 30.6 76 24.4 70 70 S 7 11 29.90 1012 10 16 0.00 0.00
8:52 pm 20:52 Clear 85 29.4 76 24.4 75 75 SSE 7 11 29.89 1012 10 16 0.00 0.00
9:52 pm 21:52 Clear 83 28.3 75 23.9 77 77 SSE 7 11 29.90 1012 10 16 0.00 0.00
10:52 pm 22:52 Clear 82 27.8 75 23.9 79 79 SSE 7 11 29.90 1013 10 16 0.00 0.00
11:52 pm 23:52 Clear 82 27.8 75 23.9 79 79 SSE 8 13 29.90 1013 10 16 0.00 0.00

Powered by AerisWeather